Home > Weather > Fortaleza > Past weeks

Flag for Brazil Weather for the Past 2 Weeks in Fortaleza, Ceará, Brazil

Now
82 °F

Scattered clouds.


Feels Like: 89 °F
Forecast: 80 / 87 °F
Wind: 7 mph from East

Location: Fortaleza Aeropor-To

Current Time: Feb 12, 2016 at 8:01:38 AM

Latest Report: Feb 12, 2016 at 7:00 AM


Visibility: N/A

Pressure: 29.89 "Hg

Humidity: 79%

Dew point: 75 °F

Location of FortalezaLocation

Historic Weather in Fortaleza — Graph

°F

Fortaleza Temperature Yesterday

Maximum temperature yesterday: 86 °F (at 11:00 AM)
Minimum temperature yesterday: 77 °F (at 6:00 AM)
Average temperature yesterday: 82 °F

High & Low Weather Summary for the Past Weeks

 TemperatureHumidityPressure
High88 °F (Jan 28, 1:00 PM)100% (Feb 2, 2:00 PM)30.01 "Hg (Feb 2, 2:00 PM)
Low43 °F (Feb 2, 2:00 PM)54% (Jan 30, 8:00 AM)29.83 "Hg (Jan 29, 3:00 PM)
Average81 °F79%29.90 "Hg
* Reported Jan 28 7:00 AM — Feb 12 7:00 AM, Fortaleza, Weather by CustomWeather, © 2016

Note: Actual official high and low records may vary slightly from our data, if they occured in-between our weather recording intervals... More about our weather records

Advertising

Fortaleza Weather History for the Previous 24 Hours

 ConditionsComfort  
Time TempWeatherWind HumidityBarometerVisibility
7:00 AM
Fri, Feb 12
82 °FScattered clouds.7 mph79%29.89 "HgN/A
6:00 AM79 °FPassing clouds.3 mph84%29.89 "HgN/A
5:00 AM79 °FPassing clouds.3 mph84%29.89 "HgN/A
4:00 AM79 °FPassing clouds.3 mph84%29.86 "HgN/A
3:00 AM79 °FPassing clouds.6 mph89%29.86 "HgN/A
2:00 AM81 °FPassing clouds.5 mph79%29.86 "HgN/A
1:00 AM81 °FPassing clouds.5 mph79%29.86 "HgN/A
12:00 AM81 °FPassing clouds.5 mph79%29.89 "HgN/A
11:00 PM
Thu, Feb 11
81 °FPassing clouds.6 mph79%29.89 "HgN/A
10:00 PM81 °FPassing clouds.5 mph79%29.89 "HgN/A
9:00 PM81 °FPassing clouds.7 mph79%29.89 "HgN/A
8:00 PM81 °FClear.8 mph79%29.86 "Hg10 mi
7:00 PM81 °FClear.9 mph79%29.86 "Hg10 mi
6:00 PM82 °FClear.12 mph74%29.83 "Hg10 mi
5:00 PM84 °FSunny.12 mph70%29.83 "Hg10 mi
4:00 PM86 °FSunny.12 mph66%29.83 "Hg10 mi
3:00 PM86 °FSunny.13 mph66%29.83 "Hg10 mi
2:00 PM86 °FPassing clouds.12 mph66%29.86 "HgN/A
1:00 PM86 °FPassing clouds.10 mph62%29.89 "HgN/A
12:00 PM86 °FScattered clouds.13 mph62%29.89 "HgN/A
11:00 AM86 °FScattered clouds.14 mph62%29.92 "HgN/A
10:00 AM84 °FScattered clouds.16 mph70%29.92 "HgN/A
9:00 AM82 °FPartly sunny.18 mph74%29.95 "HgN/A
8:00 AM81 °FScattered clouds.9 mph79%29.95 "HgN/A
Weather by CustomWeather, © 2016

See weather overviewHow to use our weather pages